Weather Roundup
Issued by NWS Springfield, MO

Home | Current Version | Previous Version | Text Only | Print | Product List | Glossary On
Versions: 1 2 3 4 5 6 7 8 9 10 11 12 13 14 15 16 17 18 19 20 21 22 23 24 25 26 27 28 29 30 31 32 33 34 35 36 37 38 39 40 41 42 43 44 45 46 47 48 49 50
000
NZUS99 KSGF 210607
HRRSGF

HOURLY WEATHER
NATIONAL WEATHER SERVICE SPRINGFIELD MO
1200 AM CST SUN DEC 21 2014

......SGF CWA......

CITY           SKY/WX    TMP DP  RH WIND       PRES   REMARKS
SPRINGFIELD    CLOUDY    41  37  86 S10       30.17F
6HR MIN TEMP:  41; 6HR MAX TEMP:  42;

JOPLIN         CLOUDY    43  36  76 S7        30.17F
6HR MIN TEMP:  42; 6HR MAX TEMP:  43;

WEST PLAINS    CLOUDY    40  35  83 S7        30.21F
6HR MIN TEMP:  40; 6HR MAX TEMP:  41;

ROLLA          CLOUDY    39  34  82 S8        30.19S WCI  33
6HR MIN TEMP:  39; 6HR MAX TEMP:  40;

OSAGE BEACH    CLOUDY    43  34  70 S6        30.20S
BRANSON        CLOUDY    39  36  87 CALM      30.20S

......SURROUNDING SGF CWA......

CITY           SKY/WX    TMP DP  RH WIND       PRES   REMARKS
CHANUTE        MOCLDY    38  35  89 S12       30.13F WCI  30
PARSONS        CLOUDY    41  37  86 S6        30.16F
COFFEYVILLE    CLOUDY    42  36  79 S9        30.16F
EMPORIA        CLOUDY    34  33  96 S10       30.08F WCI  26
GROVE OK       CLOUDY    43  41  93 CALM      30.19F
ROGERS AR      CLOUDY    41  36  82 S6        30.18S
SILOAM SPRINGS CLOUDY    43  34  70 S6        30.19F
HARRISON AR    CLOUDY    40  36  86 SE6       30.19F
NEAR YELLVILLE CLOUDY    39  34  81 CALM      30.21F

......KANSAS AND MISSOURI......

CITY           SKY/WX    TMP DP  RH WIND       PRES   REMARKS
KANSAS CTY INT PTCLDY    36  33  89 S14       30.10F WCI  27
DOWNTOWN KC    CLEAR     37  33  85 S9        30.13S WCI  30
COLUMBIA       CLOUDY    40  35  83 S8        30.19F WCI  34
SEDALIA        CLOUDY    41  35  79 S9        30.17F
ST JOSEPH      PTCLDY    35  33  92 S9        30.10F WCI  28
ST LOUIS       CLOUDY    42  33  70 S8        30.24S
SPIRIT OF STL  CLOUDY    41  34  76 S3        30.23S
KIRKSVILLE     CLOUDY    38  35  89 S12       30.16S WCI  30
WICHITA        CLOUDY    43  37  79 S15       30.06F
TOPEKA         CLEAR    N/A N/A N/A S8        30.09F
OLATHE         CLEAR     35  33  92 S9        30.11F WCI  28

......TENNESSEE......

CITY           SKY/WX    TMP DP  RH WIND       PRES   REMARKS
MEMPHIS        CLEAR     37  30  75 E3        30.24F
NASHVILLE      CLEAR     30  27  88 CALM      30.27F

......ARKANSAS.......

CITY           SKY/WX    TMP DP  RH WIND       PRES   REMARKS
FAYETTEVILLE   CLOUDY    41  39  93 CALM      30.19S
FT SMITH       CLOUDY    45  40  82 NE3       30.20F
LITTLE ROCK    CLEAR     38  34  85 CALM      30.25S

......OKLAHOMA.......

CITY           SKY/WX    TMP DP  RH WIND       PRES   REMARKS
TULSA          CLOUDY    43  40  89 S7        30.17F
PONCA CITY     CLOUDY    43  37  79 S8        30.12S
MCALESTER      CLOUDY    45  43  93 SW5       30.18F
OKLAHOMA CITY  CLOUDY    42  37  82 S8        30.12F

......IOWA............

CITY           SKY/WX    TMP DP  RH WIND       PRES   REMARKS
DES MOINES     CLOUDY    37  35  92 S9        30.09S FOG     WCI  30
QUAD CITIES    CLOUDY    34  31  88 S10       30.18F FOG     WCI  26

......ILLINOIS........

CITY           SKY/WX    TMP DP  RH WIND       PRES   REMARKS
QUINCY         CLOUDY    38  33  82 S8        30.19F WCI  32
CHICAGO        CLOUDY    31  26  82 S6        30.24S WCI  25




USA.gov is the U.S. government's official web portal to all federal, state and local government web resources and services.